Regional Weather Roundup
Issued by NWS

Home | Current Version | Previous Version | Graphics & Text | Print | Product List | Glossary Off
Versions: 1 2 3 4 5 6 7 8 9 10 11 12 13 14 15 16 17 18 19 20 21 22 23 24 25 26 27 28 29 30 31 32 33 34 35 36 37 38 39 40 41 42 43 44 45 46 47 48 49 50

839
ASUS43 KMKX 170521
RWRWI

WISCONSIN REGIONAL WEATHER ROUNDUP
NATIONAL WEATHER SERVICE MILWAUKEE/SULLIVAN WI
1100 PM CST MON JAN 16 2017

NOTE: "FAIR" INDICATES FEW OR NO CLOUDS BELOW 12,000 FEET WITH NO
SIGNIFICANT WEATHER AND/OR OBSTRUCTIONS TO VISIBILITY.

WIZ001-002-006>008-014>016-023>028-170600-
NORTHWEST WISCONSIN

CITY           SKY/WX    TMP DP  RH WIND       PRES   REMARKS
SUPERIOR ARPT  CLOUDY    19  17  92 CALM      30.02S
ASHLAND        CLOUDY    26  20  77 CALM      30.02S
HAYWARD        CLOUDY    27  19  72 NE6       29.99S WCI  20
SIREN          CLOUDY    28  22  77 CALM      29.99F
CUMBERLAND     MIX PCPN  30  21  69 N5        29.96S WCI  25
RICE LAKE      MIX PCPN  29  25  82 CALM      29.98S
CHETEK         MIX PCPN  31  29  94 CALM      29.96F
LADYSMITH      DRIZZLE   32  27  80 CALM      29.97F
EAU CLAIRE     FRZ RAIN  32  31  96 NE7       29.94F FOG     WCI  26
MENOMONIE      LGT RAIN  33  32  98 NE5       29.95F WCI  28
NEW RICHMOND   LGT RAIN  32  31  97 N7        29.96S WCI  25
OSCEOLA        CLOUDY    29  22  74 N5        30.00F WCI  24
$$

WIZ003>005-009-010-017-018-170600-
NORTH CENTRAL WISCONSIN

CITY           SKY/WX    TMP DP  RH WIND       PRES   REMARKS
MANITOWISH WTR CLOUDY    23  21  92 CALM      29.97S
ARBOR VITAE    CLOUDY    32  26  77 CALM      29.97F
WOODRUFF       CLOUDY    32  26  77 CALM      29.97F
RHINELANDER    CLOUDY    29  22  75 NE3       29.97F
EAGLE RIVER    CLOUDY    23  20  91 CALM      29.96F
LAND O LAKES   CLOUDY    22  19  89 CALM      29.99F
PHILLIPS       CLOUDY    29  22  74 NE5       29.96F WCI  24
TOMAHAWK       CLOUDY    29  22  73 CALM      29.97S
MEDFORD        MIX PCPN  32  31  96 E5        29.94S WCI  27
MERRILL        FLURRIES  31  29  94 E3          N/A
$$

WIZ029-030-035-036-043>047-170600-
CENTRAL WISCONSIN

CITY           SKY/WX    TMP DP  RH WIND       PRES   REMARKS
WAUSAU         FRZ RAIN  32  31  96 E6        29.94F FOG     WCI  26
MOSINEE        MIX PCPN  32  32 100 CALM      29.96S
MARSHFIELD     CLOUDY    33  31  92 E10       29.92F FOG     WCI  25
STEVENS POINT  MIX PCPN  31  31 100 NE5       29.95F WCI  26
WAUPACA        DRIZZLE   34  32  92 CALM      29.96F
WAUTOMA        LGT RAIN  34  32  93 NE9       29.93F FOG     WCI  26
WISC RAPIDS    MIX PCPN  33  33 100 E9        29.94F FOG     WCI  25
CAMP DOUGLAS   DRIZZLE   32  32 100 NE3       29.91F FOG
$$

WIZ011>013-019>022-031-037>040-048>050-170600-
NORTHEAST WISCONSIN

CITY           SKY/WX    TMP DP  RH WIND       PRES   REMARKS
ANTIGO         MIX PCPN  30  28  94 E6        29.96F WCI  24
SHAWANO        DRIZZLE   33  31  93 NE6       29.99F WCI  27
OCONTO         CLOUDY    31  29  92 NE5       30.01F WCI  26
STURGEON BAY   LGT RAIN  33  31  92 MISG      30.01F FOG
GREEN BAY      FRZ RAIN  34  34 100 NE13      29.96F FOG     WCI  25
MANITOWOC      LGT RAIN  35  34  96 NE8       29.96F WCI  29
APPLETON       DRIZZLE   32  32 100 NE6       29.93F WCI  26
CLINTONVILLE   MIX PCPN  32  32 100 NE5       29.97F WCI  27
OSHKOSH        LGT RAIN  34  33  96 E5        29.94F FOG     WCI  30
$$

WIZ032>034-041-042-053>061-170600-
SOUTHWEST WISCONSIN

CITY           SKY/WX    TMP DP  RH WIND       PRES   REMARKS
LA CROSSE      LGT RAIN  36  33  89 NW3       29.92F FOG
SPARTA         MIX PCPN  32  32  99 E3        29.92F
VIROQUA        CLOUDY    32  32 100 E3        29.87F
BOSCOBEL       CLOUDY    34  33  96 NE3       29.89F FOG
PRAIRIE DU CHI CLOUDY    33  32  96 CALM      29.89F FOG
PLATTEVILLE    CLOUDY    34  34 100 NE7       29.86F WCI  28
$$

WIZ056-057-062-063-064-067-068-170600-
SOUTH CENTRAL WISCONSIN

CITY           SKY/WX    TMP DP  RH WIND       PRES   REMARKS
REEDSBURG      CLOUDY    32  32 100 NE6       29.90F FOG     WCI  26
BARABOO/DELLS  MIX PCPN  32  32  99 NE6       29.89F WCI  27
LONE ROCK      CLOUDY    34  32  92 NE6       29.89F FOG     WCI  29
MINERAL POINT  FOG       36  36 100 E7        29.85F VSB 1   WCI  30
MADISON        MIX PCPN  34  33  96 NE6       29.88F FOG     WCI  29
MIDDLETON      CLOUDY    35  35 100 E6        29.88F WCI  30
WATERTOWN      CLOUDY    34  34 100 E8        29.89F FOG     WCI  28
MONROE         FOG       34  34 100 NE8       29.84F VSB 1/4 WCI  27
JANESVILLE     CLOUDY    36  36 100 E7        29.86F FOG     WCI  30
$$

WIZ051-052-058>065-066-070>072-170600-
SOUTHEAST WISCONSIN

CITY           SKY/WX    TMP DP  RH WIND       PRES   REMARKS
MILWAUKEE      CLOUDY    37  36  96 E7        29.92F FOG     WCI  32
WAUKESHA       FOG       32  32 100 E7        29.92F VSB 1   WCI  26
MILWAUKEE/TIMM CLOUDY    34  32  93 E7        29.93F FOG     WCI  28
RACINE         LGT RAIN  36  35  96 E9        29.91F FOG     WCI  29
KENOSHA        MIX PCPN  37  36  96 E10       29.88F VSB 1   WCI  30
FOND DU LAC    RAIN      35  32  88 E6        29.94F FOG     WCI  30
SHEBOYGAN      LGT RAIN  35  33  92 E9        29.95F WCI  28
WEST BEND      FOG       34  34 100 E8        29.92F VSB 3/4 WCI  27
JUNEAU         DRIZZLE   33  33  99 E8        29.91F WCI  26
$$

LSZ147-162-170600-
LAKE SUPERIOR

STATION/POSITION TIME  TEMP    WIND        PRES    WAVE
                       AIR SEA DIR/SP/G            HT/PER
                 (UTC) (F)     (DEG/KT/KT) (MB)    (FT/S)
DEVILS ISLAND    0500   33      50/  6/  6 1017.5F
PORT WING        0430   21     140/  2/  3 1016.9S
SAXON HARBOR     0440   25     210/  3/  3 1016.3S
$$

LMZ867-665-643>646-170600-
LAKE MICHIGAN

STATION/POSITION TIME  TEMP    WIND        PRES    WAVE
                       AIR SEA DIR/SP/G            HT/PER
                 (UTC) (F)     (DEG/KT/KT) (MB)    (FT/S)
NORTHPORT PIER   0502   31      90/  2/  4 1016.9
SISTER BAY       0320   28        CALM       N/A
ALGOMA LAKESHORE 0423           70/  8/  9   N/A
KEWAUNEE LAKESHO 0454   35      70/  8/ 11 1015.3F
SHEBOYGAN LAKESH 0500   36     100/ 12/ 14 1014.7F
PORT WASHINGTON  0440   36     120/ 10/ 12 1015.2R
MILWAUKEE LAKESH 0500   36      90/  8/  9   N/A
KENOSHA   LAKESH 0500   36     110/  6/  7 1012.5
$$

TC  - TEMPERATURE IN CELSIUS
VSB - VISIBILITY IN STATUTE MILES
WCI - WIND CHILL INDEX
HX  - HEAT INDEX





USA.gov is the U.S. government's official web portal to all federal, state and local government web resources and services.